Theta_e
297 297 297 297 297 296 296 296 296 297 299 301 303 307 312 308 306 310 308 305 309 312 310 311 312 311 310 309 308 307 307 308 307 307 308 307 308 309 309 309 309 310 310 309 309 308 309 308 307 307 308 308 308 308 307 308 309 310 311 312 314 314 311 308 308 309 308 309 311 311 310 311 311 312 313 312 312 312 312 312 312 311 311 311 311 312 312
297 297 297 297 297 296 295 296 296 297 298 299 303 309 309 306 308 311 308 306 309 310 309 309 309 310 311 310 308 306 306 308 308 308 308 308 309 310 309 309 309 309 308 309 309 308 308 308 307 308 308 308 307 306 307 309 310 311 312 313 313 311 309 309 309 308 308 309 309 310 310 311 312 313 313 312 312 312 313 313 313 313 312 311 311 311 312
296 296 296 297 297 295 295 296 296 297 298 299 304 309 307 307 310 309 308 309 310 309 309 310 310 311 312 311 310 308 307 307 307 308 307 306 307 309 309 307 307 308 307 308 308 307 307 308 308 307 307 308 307 306 306 308 310 312 312 313 312 309 309 311 309 307 308 308 309 310 310 310 311 312 312 312 312 312 313 313 312 312 312 311 311 311 312
296 296 296 296 297 296 295 295 296 297 298 299 305 309 308 307 309 308 308 309 309 308 309 310 310 310 311 310 310 310 309 307 305 306 307 306 306 308 308 306 307 308 308 309 308 308 307 307 308 308 308 309 307 306 306 307 309 312 311 311 311 310 310 310 309 308 308 308 308 309 310 310 310 310 311 311 312 312 312 311 312 312 312 311 312 312 312
296 296 296 296 297 296 295 294 296 298 298 300 304 308 308 307 308 308 308 308 308 308 308 308 309 309 309 310 311 310 310 308 306 305 306 305 306 307 307 306 308 309 309 310 309 309 308 307 308 309 308 309 307 305 306 306 307 310 310 308 310 311 310 310 311 310 309 308 308 309 309 309 309 309 310 311 311 312 312 311 311 312 311 311 312 312 312
295 295 295 296 296 296 295 294 295 297 299 301 305 307 307 307 307 306 306 307 307 307 307 307 307 308 308 309 310 310 309 309 308 306 305 305 305 307 307 306 307 307 308 310 310 310 310 309 310 310 309 308 308 306 306 306 306 307 308 307 309 310 308 310 311 309 308 308 308 308 308 308 308 308 310 310 311 312 312 311 311 311 311 311 311 312 312
295 295 295 295 296 296 295 294 294 297 298 301 305 306 305 305 306 305 306 307 307 307 306 306 307 308 308 308 308 308 309 308 306 305 306 307 306 305 307 307 306 306 307 308 310 310 310 310 310 311 310 309 309 308 307 307 305 306 307 308 308 307 308 309 309 307 308 307 307 308 308 308 308 309 309 309 310 311 311 311 311 311 311 311 311 313 314
295 295 295 295 296 296 296 294 294 296 298 300 302 303 303 304 304 305 306 306 306 306 306 306 307 307 308 308 307 307 308 308 305 303 305 308 307 306 308 307 305 305 306 307 310 310 310 310 310 310 309 309 309 309 308 307 306 306 306 307 308 307 308 310 309 307 307 307 306 307 307 307 308 308 308 309 309 310 311 311 311 312 311 311 312 314 314
295 295 295 295 295 296 296 294 293 295 298 301 301 300 300 302 302 302 305 305 304 305 305 305 306 306 307 308 307 306 306 305 305 303 302 305 306 306 307 308 306 305 306 308 308 306 306 308 308 307 307 307 307 307 307 306 307 307 306 307 307 306 307 308 307 306 307 306 306 306 306 306 306 307 307 308 309 309 310 311 311 312 312 312 312 312 311
295 295 295 295 295 295 296 295 293 293 296 300 300 299 299 300 301 301 304 304 303 303 304 304 304 305 305 306 305 305 304 303 303 304 302 302 303 303 305 307 307 306 308 307 305 303 303 304 304 304 304 304 304 305 305 304 305 306 307 306 306 306 306 306 306 306 306 305 305 305 306 305 305 307 308 308 308 309 309 309 310 310 311 311 311 311 311
294 295 295 295 295 295 296 295 294 293 295 298 299 298 297 298 299 301 303 303 303 303 303 304 304 305 304 303 303 304 304 303 304 305 304 302 302 302 303 306 306 306 306 304 302 301 302 302 302 302 303 303 303 303 303 303 303 304 305 305 305 306 305 304 304 305 305 305 305 305 305 304 305 308 310 310 309 308 309 309 310 311 311 310 310 310 310
294 294 295 295 295 295 295 296 294 292 293 296 298 298 297 296 299 301 302 302 303 303 303 303 303 303 303 303 303 303 303 303 303 304 304 303 302 302 302 304 305 304 302 301 302 302 302 301 302 302 302 303 303 303 302 303 303 303 303 304 304 304 304 304 304 304 304 304 304 304 304 305 306 308 309 308 308 308 307 309 310 311 311 311 310 309 310
294 294 295 295 295 295 295 296 295 293 292 295 297 297 296 297 299 301 301 301 302 302 303 302 301 302 302 303 303 302 302 302 302 303 304 303 302 302 301 301 302 301 300 300 302 303 303 303 303 303 303 303 303 303 302 303 303 303 303 302 303 304 303 303 303 303 304 304 303 304 304 305 306 308 308 307 307 307 307 308 309 309 309 310 310 309 310
294 294 295 295 295 295 295 295 295 294 292 294 296 297 295 296 299 300 300 301 301 301 301 302 302 302 302 302 302 302 302 302 302 302 302 302 301 301 300 299 299 300 300 301 302 303 303 303 303 303 303 303 303 303 303 302 303 303 303 302 303 303 303 303 303 303 304 303 303 304 305 304 305 307 308 307 308 308 308 308 307 307 307 307 308 308 308
294 294 295 295 295 295 295 295 295 295 293 293 295 296 295 294 297 299 300 300 300 300 301 302 301 302 302 301 300 301 301 301 301 301 300 300 300 299 299 298 299 300 301 301 302 303 303 303 303 303 303 303 303 303 303 302 302 302 303 302 302 303 303 303 303 303 303 303 303 304 304 304 305 307 307 306 307 308 308 308 306 305 305 305 306 306 306
294 294 294 294 295 295 295 295 295 295 293 293 295 296 294 293 294 298 299 299 299 300 300 299 300 300 300 300 299 300 300 300 300 300 300 299 299 298 298 299 299 300 300 300 301 302 302 302 303 303 303 302 303 302 302 302 302 301 302 302 302 303 303 302 302 302 302 303 303 303 303 304 306 306 305 304 305 306 307 306 305 303 303 303 304 305 305
295 294 294 295 294 295 295 295 295 295 294 293 295 296 294 292 293 296 299 298 298 299 298 297 299 300 299 299 299 300 300 299 299 299 299 299 298 297 298 298 299 299 299 300 301 301 301 301 302 302 302 302 302 302 302 301 302 302 301 301 302 302 302 301 301 302 302 302 302 302 302 304 306 305 303 303 305 306 305 305 303 302 301 302 302 303 304
295 294 294 295 294 295 295 295 295 295 294 293 294 296 295 292 291 295 299 297 296 298 297 296 298 299 298 298 299 299 299 299 299 298 298 298 298 297 296 297 298 299 299 300 301 301 300 301 301 301 301 301 301 301 301 301 302 302 301 302 301 302 301 301 301 301 301 301 301 301 302 304 304 304 302 302 304 304 304 302 301 300 300 301 301 302 303
295 294 294 294 294 294 295 295 295 295 294 293 294 296 295 293 292 294 297 296 296 298 297 296 297 298 297 297 298 298 298 298 298 298 298 298 298 297 296 297 298 299 299 300 300 300 300 300 301 301 301 301 301 301 301 301 301 301 301 301 301 301 301 300 300 300 300 300 301 300 301 302 302 301 301 302 302 302 301 300 299 299 299 300 300 300 301
294 294 294 294 294 295 295 295 295 295 294 293 294 296 296 293 293 294 296 297 297 297 296 296 296 297 296 297 298 298 297 298 298 298 297 297 298 298 297 298 298 298 298 298 299 299 299 299 301 300 300 300 301 300 300 300 300 299 299 300 300 300 300 299 299 300 299 299 299 299 299 301 301 300 300 300 300 300 300 299 299 299 299 299 300 300 300
294 294 294 294 294 294 295 295 295 295 295 293 294 297 296 295 294 294 294 296 297 296 296 296 296 296 297 297 297 297 297 298 298 298 298 297 298 298 297 297 297 297 297 297 297 297 297 297 298 298 298 299 299 298 298 298 298 298 298 298 298 298 298 298 298 299 299 298 298 299 299 300 300 300 299 299 299 299 299 299 299 299 299 299 299 300 300
294 294 294 294 294 294 295 295 295 296 295 294 294 297 297 295 295 293 293 295 296 296 296 296 295 296 296 296 296 296 296 296 297 297 298 298 297 297 297 297 297 297 297 297 296 296 297 296 296 296 296 297 297 297 296 296 296 297 297 297 296 297 297 297 298 298 298 298 298 298 298 298 299 299 299 298 299 299 299 298 298 299 299 299 299 299 299
294 294 294 294 294 294 294 295 295 296 295 294 294 296 296 296 295 294 294 296 296 295 295 295 295 296 296 296 295 295 295 296 296 297 297 297 297 297 297 297 297 297 297 297 296 296 296 296 296 295 295 296 296 296 295 296 295 296 296 296 296 297 297 297 296 296 297 297 297 298 297 298 298 298 298 298 298 298 298 298 298 298 298 298 298 298 298
295 295 294 294 294 294 294 295 295 295 295 293 294 295 296 295 294 295 296 296 295 295 295 295 295 295 295 296 295 295 295 296 296 296 296 296 297 297 297 297 298 297 297 298 297 297 296 295 296 295 295 296 296 295 295 295 295 295 295 295 295 296 296 296 296 295 295 296 297 297 297 297 297 297 297 297 297 297 297 297 297 297 297 297 297 298 298
295 295 295 294 294 294 294 295 295 295 295 293 294 295 296 295 294 295 296 295 294 295 295 294 294 294 294 295 295 295 295 295 295 296 296 296 297 297 297 298 298 297 298 298 298 296 295 295 296 295 295 296 296 295 295 295 295 295 295 294 294 295 296 295 295 295 295 295 295 296 296 296 296 296 296 296 296 297 297 297 296 296 296 297 297 297 297
295 295 295 295 294 295 295 295 295 295 294 293 294 295 296 295 294 295 296 295 294 294 294 294 294 294 295 296 295 295 295 295 295 296 296 296 297 297 298 298 297 297 298 298 297 296 295 295 295 295 295 296 295 294 295 295 295 295 295 294 295 295 295 294 294 295 295 295 295 295 295 295 296 295 296 296 296 296 296 296 296 296 296 296 296 297 297
295 295 295 295 295 295 295 294 294 294 294 294 294 295 296 295 294 294 295 295 295 294 293 294 294 294 295 296 295 295 295 295 296 296 297 296 296 297 297 298 297 297 297 297 296 296 295 295 295 295 296 296 296 295 295 295 295 294 294 295 295 295 294 294 294 294 294 295 295 295 295 295 295 295 296 296 296 296 296 296 295 296 296 296 296 296 297
295 294 294 295 295 295 295 294 293 293 294 294 295 295 295 295 295 294 295 295 295 294 293 294 295 295 295 295 295 295 295 295 296 296 296 296 297 297 297 298 297 297 296 296 296 296 295 295 295 295 295 295 295 294 295 295 295 294 294 294 294 294 294 294 294 293 294 295 295 295 295 295 295 296 296 296 296 296 296 296 296 296 296 297 297 297 297
295 293 293 294 295 296 295 293 292 293 294 295 296 296 296 296 295 295 295 295 295 295 294 294 294 295 295 295 295 295 295 295 295 295 295 296 296 297 297 297 297 296 296 296 295 295 295 295 295 295 296 296 294 293 294 294 294 294 294 294 294 294 294 294 294 295 295 295 295 296 296 296 295 296 296 296 296 296 296 296 297 297 297 297 297 297 297
295 292 292 294 296 295 293 292 292 293 293 295 297 296 296 296 296 295 296 295 295 295 295 294 294 294 294 295 295 295 294 294 295 295 295 295 295 295 296 296 296 296 296 295 295 294 294 294 294 295 297 296 294 293 293 293 293 294 294 294 295 295 295 295 295 296 296 296 296 296 296 295 295 295 295 296 297 298 297 297 298 298 298 298 297 296 297
294 292 292 294 294 293 291 291 292 293 294 296 297 296 295 296 296 296 296 295 295 295 294 293 294 294 294 295 295 295 294 295 295 295 295 295 294 295 295 295 295 295 295 294 294 294 294 293 293 295 296 295 294 293 293 293 293 293 294 295 295 295 296 296 296 295 295 296 295 295 295 295 295 296 296 296 297 298 297 297 298 298 299 299 298 297 297
293 292 293 295 293 291 291 292 293 294 295 296 296 295 295 296 295 295 295 294 295 295 295 293 293 293 293 294 295 294 294 295 296 295 294 294 294 294 295 294 294 295 295 294 293 293 293 294 293 294 295 295 294 293 293 292 293 294 295 295 295 295 295 295 295 296 296 296 296 295 295 295 295 296 296 296 296 297 297 297 297 298 298 298 298 297 297
293 292 293 294 293 292 293 293 293 294 295 295 295 295 295 295 295 294 294 294 295 296 295 294 293 293 293 294 294 294 294 295 295 294 294 294 294 294 294 294 294 295 295 294 293 293 294 294 293 293 295 295 294 293 293 293 294 295 295 295 295 295 296 295 296 296 296 296 296 296 295 295 295 295 296 296 297 297 297 297 297 297 297 297 297 297 298
294 292 293 294 293 293 293 294 293 294 295 295 296 295 294 294 294 294 294 295 296 295 294 294 293 293 293 293 294 294 294 295 294 293 293 294 294 293 293 293 293 293 294 294 293 293 293 293 293 293 294 294 294 293 294 294 294 294 294 295 295 295 295 295 295 295 295 295 295 295 295 295 296 296 296 297 297 297 297 298 298 298 297 297 297 297 298
294 292 292 294 294 293 293 294 294 295 296 296 296 295 293 293 294 294 294 295 296 294 294 294 293 293 293 293 293 294 295 294 293 293 293 293 294 293 293 293 293 293 293 293 293 292 293 293 293 293 293 293 293 294 294 293 294 294 295 295 295 295 295 295 295 294 294 294 295 295 295 296 296 296 296 297 297 297 297 298 298 298 297 297 296 296 295
294 293 292 294 294 294 295 295 295 296 296 296 295 294 293 294 295 294 294 295 296 295 294 294 293 293 293 292 292 294 295 294 293 293 293 293 293 293 293 293 292 293 293 293 292 292 293 293 293 293 293 293 293 294 294 294 294 295 295 295 295 295 295 294 294 294 295 295 295 295 295 296 296 296 296 296 296 296 296 296 296 296 295 295 294 293 293
294 293 293 294 296 296 296 296 296 295 294 293 293 294 294 295 295 296 296 296 296 296 295 294 294 293 293 293 293 294 294 293 293 293 293 292 292 292 292 292 292 292 293 292 292 293 293 294 294 293 293 293 293 294 294 294 295 296 296 295 295 295 294 294 295 295 295 294 294 295 295 295 295 296 296 295 294 294 294 294 294 293 293 293 293 292 293
294 293 294 295 296 295 295 295 295 293 292 292 293 295 296 296 295 296 295 295 296 296 295 295 294 294 294 294 294 294 294 293 293 293 293 292 292 292 292 292 292 292 292 291 292 293 293 293 293 293 293 294 295 294 294 295 295 296 296 296 296 296 295 295 295 295 294 294 295 295 295 295 295 295 295 294 293 293 293 293 293 293 293 293 292 292 292
294 295 295 295 295 294 295 295 293 292 293 294 294 295 295 295 295 295 295 295 295 295 295 295 294 294 294 294 294 294 294 293 293 293 293 292 292 291 291 291 292 291 291 291 292 292 292 292 292 292 293 294 294 294 294 295 296 296 296 296 296 296 295 295 295 295 295 295 295 295 294 294 294 294 294 293 292 292 293 293 293 293 293 292 292 292 292
295 295 295 295 295 294 294 293 293 293 295 295 295 294 294 295 295 294 294 294 294 294 294 294 294 294 294 294 294 294 294 294 293 292 292 292 292 291 291 292 292 291 290 291 292 292 291 292 292 292 292 293 294 294 294 295 296 296 296 296 297 297 296 296 296 295 295 295 295 294 294 294 293 293 293 292 292 292 292 292 292 292 292 292 291 291 291
295 295 295 294 294 294 293 294 294 295 295 294 293 293 294 294 294 294 294 294 293 293 294 294 294 294 295 294 294 294 294 294 293 293 292 293 293 292 291 292 291 290 290 291 292 291 291 292 291 291 292 293 294 294 294 295 295 296 296 297 297 297 296 296 296 295 295 295 294 293 293 293 293 293 292 292 292 292 292 292 292 292 292 291 291 290 290
293 293 293 294 293 293 293 294 294 294 293 293 292 292 292 293 293 293 293 294 293 293 294 294 293 293 294 294 293 293 294 294 293 293 292 292 292 291 291 291 291 291 291 292 291 291 291 292 291 292 293 294 294 293 294 295 295 295 295 297 297 296 296 297 296 295 294 294 294 294 294 293 293 293 293 293 292 292 292 292 292 292 291 291 290 290 289
293 293 293 293 293 293 293 294 294 293 292 292 292 292 292 292 293 293 293 293 293 293 293 294 294 294 294 294 293 293 294 293 293 292 292 292 292 291 291 291 291 291 292 291 291 291 291 291 291 292 293 293 293 293 294 295 295 294 295 296 296 296 296 296 295 294 294 293 293 294 294 293 293 293 293 293 292 292 292 292 292 291 291 291 290 290 290
294 293 293 293 292 292 292 293 293 293 292 292 292 292 292 292 293 293 293 293 293 293 293 293 293 293 293 294 293 293 293 293 292 292 292 292 292 291 291 291 291 292 291 291 291 291 291 291 291 292 292 293 293 294 295 295 294 294 295 296 296 296 296 295 294 294 294 293 293 293 293 293 293 293 293 293 293 293 292 292 291 291 291 291 290 290 289
294 293 293 293 292 292 292 292 291 291 292 292 292 292 293 293 293 293 293 293 293 293 293 293 293 293 293 293 293 292 292 292 292 292 291 291 291 291 291 291 291 291 291 291 291 291 291 291 292 292 292 292 293 294 294 294 294 294 295 296 296 295 295 295 294 294 294 293 293 293 293 293 293 292 292 292 292 292 292 292 291 291 290 290 290 290 289
293 292 292 292 292 292 291 292 292 292 292 292 292 293 293 294 294 294 294 293 293 293 293 293 293 293 293 293 293 292 292 292 292 292 291 291 291 291 291 291 291 291 291 291 291 290 290 291 291 292 292 292 294 294 294 294 294 295 295 295 295 294 294 294 294 294 293 293 293 293 293 293 293 292 292 292 292 292 291 291 291 290 290 289 289 289 289
293 292 291 292 292 292 292 292 293 293 293 293 293 294 294 294 293 293 293 293 293 293 293 293 293 293 293 292 292 292 292 292 291 292 291 291 291 291 291 291 291 291 291 290 290 290 291 291 292 292 292 293 294 294 294 294 294 295 295 294 294 294 294 294 294 293 293 293 294 293 293 293 293 293 293 292 292 291 291 290 290 289 289 289 289 289 289
293 292 292 293 293 293 292 293 294 293 293 293 293 293 293 293 293 293 294 294 293 293 293 293 292 293 293 292 292 292 292 292 292 292 292 291 291 291 291 291 291 291 291 290 290 291 291 291 292 292 292 292 293 293 294 294 295 295 294 294 294 295 295 294 294 293 293 294 294 294 294 294 294 293 292 291 291 290 290 290 289 289 289 288 288 288 288
293 292 292 292 293 293 293 293 293 293 294 294 294 293 293 293 293 293 294 293 293 293 293 293 292 292 292 292 291 292 292 291 291 292 291 291 291 290 290 290 290 291 291 291 291 291 291 292 292 292 292 293 293 293 294 294 295 295 294 294 294 295 295 295 294 293 293 294 294 294 294 294 294 293 292 291 290 290 290 289 289 289 288 288 288 287 287
292 292 292 292 293 293 294 293 293 294 294 294 294 293 293 293 293 293 294 293 293 293 293 293 292 292 292 291 291 291 292 291 291 291 291 291 291 291 291 290 290 290 291 291 292 292 292 292 292 292 292 293 293 293 294 295 296 296 295 295 294 294 295 295 294 294 294 294 294 294 294 293 292 292 291 290 290 290 289 289 289 288 288 287 287 287 287
292 292 292 293 293 294 294 293 293 293 294 294 293 293 293 293 293 294 294 293 292 292 292 292 292 292 292 292 292 292 292 291 291 291 291 291 291 291 291 291 291 291 291 292 292 292 292 292 292 292 292 293 293 293 294 295 296 296 296 295 294 294 294 294 294 294 294 294 293 293 292 292 291 291 290 290 290 290 290 289 288 288 288 287 287 287 286
292 292 293 293 293 293 293 293 293 293 293 293 293 293 293 293 293 294 293 293 292 292 292 292 292 292 292 292 292 292 291 291 291 291 291 291 291 291 291 291 291 291 292 292 292 292 292 292 292 292 292 293 293 294 294 295 297 297 296 295 294 294 293 294 294 294 293 293 292 292 291 291 291 291 290 291 291 290 290 289 288 288 288 287 287 286 286
Wind_Speed
32 32 33 33 34 36 37 37 36 35 31 23 17 11 3 3 2 2 6 7 4 7 5 4 3 4 1 1 2 2 1 3 3 3 4 3 2 3 3 2 3 3 3 3 5 5 4 4 3 3 3 2 4 4 2 1 3 4 3 1 3 1 3 6 7 7 10 7 2 3 3 4 8 8 8 8 8 9 9 9 9 8 9 9 8 10 5
32 32 34 34 35 37 37 36 34 32 29 22 13 7 2 2 2 1 5 5 4 7 5 5 6 3 3 3 4 3 1 0 1 2 1 1 1 3 2 1 1 1 2 3 5 4 4 5 3 3 4 3 5 3 2 2 2 1 2 1 1 2 4 5 6 6 7 7 6 6 6 6 8 8 6 6 9 10 9 8 8 8 12 13 10 10 7
32 33 34 35 36 38 38 36 33 29 27 20 9 4 3 3 2 1 3 5 2 4 2 3 4 2 5 5 5 4 2 3 2 1 2 3 2 1 1 2 0 2 3 3 4 4 4 4 3 2 3 4 4 2 2 3 1 3 5 4 2 4 5 4 6 7 6 7 6 3 2 4 6 6 6 6 7 10 9 8 9 9 11 13 11 11 7
33 33 34 35 36 38 38 37 33 27 24 19 7 4 4 2 1 1 1 3 3 1 2 2 3 2 4 4 3 4 4 4 3 2 2 2 2 1 1 1 2 3 4 5 5 5 5 4 3 4 4 4 5 3 1 1 2 3 3 2 2 4 5 6 9 9 8 9 9 5 6 7 7 7 9 7 6 8 8 8 10 10 10 11 11 12 11
33 33 33 35 36 38 39 39 34 26 21 15 4 2 3 2 1 3 1 1 3 3 3 2 1 0 2 2 2 2 3 4 2 1 1 2 1 0 0 1 4 4 5 6 5 5 5 5 5 4 3 3 5 3 2 2 2 2 1 1 2 5 6 8 11 12 12 13 13 10 9 11 12 12 12 11 9 10 10 9 11 11 10 10 10 12 14
32 33 33 34 36 37 39 39 35 26 19 12 3 2 3 2 1 3 2 2 2 2 3 4 2 2 0 1 1 1 3 3 2 2 2 1 0 1 2 2 3 3 3 5 5 5 6 6 5 4 3 3 4 5 5 4 1 2 3 1 2 5 7 8 11 13 14 14 14 13 12 12 14 15 14 13 13 14 14 13 14 13 11 11 11 12 12
31 32 33 34 35 37 38 39 36 27 20 17 9 4 4 2 2 2 2 2 3 3 3 3 2 2 2 1 1 0 1 2 3 2 0 2 1 2 3 3 1 1 2 4 5 4 4 4 4 3 2 2 4 5 5 5 4 3 2 1 1 4 5 6 10 14 15 15 15 16 16 15 15 16 16 16 16 16 16 16 16 17 17 16 14 13 11
30 31 32 33 34 35 36 39 37 30 23 20 15 9 5 3 3 3 2 1 3 3 2 2 1 1 1 0 2 2 1 3 4 3 3 0 2 2 2 3 2 1 1 2 1 2 3 0 2 1 1 2 3 4 2 2 4 3 2 0 1 3 3 3 7 12 13 14 15 16 17 18 18 18 18 18 18 18 17 15 15 15 17 16 14 12 10
30 30 31 32 33 33 35 37 37 34 27 18 11 9 8 4 2 3 4 1 3 3 2 2 2 1 2 2 2 3 3 3 4 4 5 4 3 4 3 1 1 1 2 3 4 5 5 3 3 3 3 1 1 1 1 2 2 3 2 1 1 4 5 5 7 10 11 12 15 17 17 18 19 19 19 19 18 17 15 14 13 13 13 13 13 12 11
28 29 30 31 31 32 33 35 35 34 30 19 9 7 10 6 1 3 4 1 3 3 1 1 2 1 3 4 3 3 4 3 1 1 3 4 5 6 5 3 2 3 3 5 6 5 5 5 4 3 3 3 3 3 2 3 4 4 3 2 3 5 7 7 8 10 11 12 13 12 11 13 13 11 11 14 16 16 16 16 16 16 13 12 12 10 7
27 28 29 30 30 31 31 32 34 33 29 20 11 9 11 8 3 3 4 1 2 3 2 2 2 2 3 4 3 4 4 4 2 2 1 3 5 6 5 4 3 1 3 5 6 5 5 4 4 3 4 5 5 5 5 6 6 5 5 4 5 6 6 7 7 9 10 10 9 8 10 10 6 2 3 4 6 10 13 12 11 11 9 9 10 9 6
26 26 27 28 29 30 29 29 31 30 26 18 12 11 12 9 5 4 4 2 3 2 2 4 4 3 3 3 3 4 5 4 5 5 2 4 4 5 5 5 3 2 5 7 6 3 3 3 4 5 6 7 7 7 8 9 8 6 6 6 6 6 6 7 6 7 9 8 7 9 10 5 1 4 4 3 3 6 8 6 4 6 6 7 9 8 5
25 26 26 27 27 28 28 27 28 29 25 18 13 13 14 12 6 3 4 3 2 4 3 3 4 3 3 4 3 4 5 4 4 3 3 3 3 4 5 5 5 5 6 8 7 4 4 5 5 6 7 7 8 9 11 12 9 7 7 8 7 7 7 7 6 7 8 7 8 9 7 1 2 2 4 2 2 4 6 5 1 5 5 5 5 3 3
24 24 25 26 26 26 26 26 26 27 25 19 13 12 15 15 9 3 4 3 2 3 2 1 3 4 4 4 4 1 2 2 1 2 3 3 3 4 5 5 5 5 6 6 5 4 5 4 5 6 7 7 8 9 9 8 6 6 6 7 7 7 7 6 7 7 7 8 9 9 9 8 7 2 4 4 2 2 4 6 2 4 5 4 3 2 2
24 23 23 24 25 25 25 25 24 25 25 20 13 11 15 17 11 5 4 4 1 2 2 2 4 4 3 4 5 3 0 1 0 1 3 2 3 3 4 5 6 5 4 4 4 5 4 5 6 6 6 7 7 5 4 4 4 4 4 5 5 6 7 6 7 7 7 8 9 8 10 9 3 2 4 4 2 3 4 6 4 2 4 4 3 2 2
22 23 22 23 23 23 24 24 23 23 24 21 13 10 14 18 14 8 5 4 2 2 3 5 4 4 3 2 3 3 2 2 2 1 3 3 3 3 3 4 4 4 4 4 4 4 5 6 6 5 6 7 6 4 3 4 4 4 4 5 5 6 6 6 7 7 7 8 8 8 9 5 3 3 3 4 2 2 4 5 5 2 7 6 4 4 4
21 22 22 22 22 22 22 23 23 22 23 22 14 9 12 18 16 9 6 3 2 2 4 5 5 4 2 1 1 2 3 2 2 2 0 2 4 3 4 3 1 2 4 4 4 4 5 6 6 6 6 4 3 5 5 5 5 5 5 6 7 6 5 6 7 8 8 9 8 8 7 2 3 2 3 5 4 2 3 6 4 4 9 8 7 7 6
20 21 21 21 21 21 21 22 22 21 22 22 15 7 10 17 16 10 5 3 1 3 4 6 6 3 3 4 2 3 3 2 1 1 0 2 3 4 5 4 0 1 2 4 4 4 5 5 5 6 4 1 1 5 4 2 4 4 4 4 6 6 5 6 7 8 8 9 9 8 6 2 4 3 4 5 3 2 6 6 3 7 10 9 8 9 8
20 20 20 19 20 20 20 21 21 21 21 21 16 7 9 17 17 11 6 3 1 3 4 5 6 5 4 3 2 1 2 2 2 3 1 1 3 4 3 2 1 1 1 2 3 2 4 4 3 3 4 2 1 3 4 2 2 4 4 5 6 5 5 6 7 7 7 7 8 9 5 3 7 7 6 4 3 4 4 4 5 7 10 10 9 10 8
19 19 20 19 19 19 19 19 20 19 19 20 16 8 8 15 17 11 7 4 2 3 4 4 5 5 5 4 3 2 1 1 2 3 2 3 4 4 3 2 1 2 2 0 1 1 2 3 1 1 4 2 0 1 4 4 4 4 5 5 5 4 5 6 6 6 7 7 8 9 5 2 7 8 6 3 3 4 5 6 7 8 9 10 10 10 8
20 19 19 19 18 18 18 18 18 18 17 17 15 9 8 14 16 11 6 4 3 2 4 2 4 5 5 6 6 5 4 4 4 4 3 3 3 3 1 3 3 3 2 2 1 1 0 1 1 1 3 2 1 2 3 4 4 2 2 5 6 5 5 6 5 4 5 6 6 4 3 3 6 7 5 4 6 6 7 9 9 9 9 9 8 8 8
21 20 18 18 18 17 17 17 17 17 15 14 13 10 8 12 15 11 7 4 3 3 3 2 2 3 3 4 5 5 5 5 5 4 3 3 2 2 2 3 3 3 3 2 1 1 0 1 1 2 3 2 2 3 3 4 4 1 1 4 4 2 3 6 6 5 5 7 8 8 9 9 8 8 7 9 10 10 11 12 11 10 10 9 8 9 10
21 20 18 18 18 17 16 15 15 15 13 12 12 10 9 11 14 11 5 3 3 4 4 2 2 2 1 2 4 3 3 4 3 4 5 4 2 2 2 2 3 2 2 2 3 2 1 1 1 2 3 2 2 3 4 4 4 3 3 4 5 5 6 7 6 7 9 10 10 10 11 11 11 11 11 12 12 12 12 12 11 10 10 10 10 12 13
20 19 18 18 18 17 16 14 14 13 11 8 10 9 8 11 15 12 5 1 1 2 3 3 2 2 3 3 3 3 3 4 4 4 4 4 3 1 2 3 3 1 1 2 3 2 1 1 1 2 2 1 1 3 3 3 3 3 3 5 6 4 4 5 7 8 9 8 8 9 11 12 13 14 14 14 14 13 12 11 11 11 12 13 13 15 15
20 20 20 18 17 16 15 13 12 12 9 6 8 8 7 10 15 13 6 2 2 1 0 3 4 3 3 2 3 3 4 5 6 6 5 5 6 5 2 3 3 3 2 1 2 2 2 1 2 2 2 1 1 2 2 2 2 3 3 5 6 3 3 4 8 9 9 10 12 13 15 15 14 13 12 12 13 13 13 13 13 14 15 16 17 17 17
21 21 21 19 17 15 14 12 10 9 6 5 7 7 7 10 14 13 8 4 2 2 1 3 4 3 2 2 4 5 6 6 6 6 7 7 8 7 5 3 2 3 2 2 3 3 3 3 3 4 3 0 1 3 4 3 4 4 5 7 7 5 5 7 9 9 10 11 13 13 13 14 13 13 13 12 12 14 16 16 16 16 17 18 19 19 18
23 23 21 19 17 15 12 10 8 6 3 4 6 7 7 9 13 13 10 8 4 1 1 3 4 3 3 4 6 7 6 6 4 2 4 6 7 6 6 6 5 4 4 3 3 3 4 4 3 4 3 1 1 4 5 4 5 6 6 6 5 6 7 8 7 8 9 9 11 12 12 12 12 13 15 16 15 16 18 18 18 18 19 18 19 20 20
24 24 22 18 16 13 11 8 5 4 1 3 4 5 6 8 10 11 11 11 7 3 1 2 2 2 2 4 6 7 6 7 6 4 2 1 3 5 5 6 5 4 4 4 3 3 4 4 3 3 2 1 2 4 4 4 5 6 5 4 4 6 8 8 8 9 10 12 13 13 11 12 13 15 17 18 17 18 19 20 19 19 18 18 18 19 19
25 26 23 19 16 12 9 5 3 2 1 3 1 1 2 4 7 10 10 10 8 5 2 0 2 2 1 3 6 6 6 6 5 4 3 3 1 1 3 4 4 3 3 3 4 4 4 4 4 3 1 1 2 4 4 4 5 5 5 5 6 7 8 8 9 10 12 14 14 13 13 15 17 18 19 19 17 18 19 18 17 16 16 17 17 17 17
26 26 23 20 16 11 5 1 0 1 1 3 2 4 2 3 5 9 10 9 8 5 3 1 1 2 1 2 5 6 7 6 5 4 3 3 2 2 2 2 2 3 3 3 3 4 4 4 3 1 1 0 3 4 4 4 5 5 5 7 7 8 8 9 9 11 12 14 14 14 16 17 17 17 17 17 16 16 15 15 15 15 16 17 16 15 16
26 25 21 18 15 9 2 3 3 2 1 2 3 4 2 2 6 10 10 8 6 4 3 1 1 2 2 1 3 7 8 6 4 4 3 3 3 2 2 2 2 2 3 3 3 3 3 3 3 2 1 2 2 4 4 5 6 5 5 7 8 9 10 11 10 11 13 14 14 15 15 14 13 14 14 14 16 17 15 16 18 19 18 18 16 15 17
26 23 18 15 11 7 5 5 4 4 4 2 3 4 3 2 6 9 9 7 5 3 3 1 1 1 0 1 2 7 9 5 3 3 2 3 4 3 1 2 2 1 2 3 3 2 2 2 3 4 1 2 3 4 5 6 6 6 8 10 10 11 11 11 11 11 11 11 11 13 13 13 12 13 14 16 18 18 17 18 20 21 19 17 16 17 18
25 21 15 11 9 6 5 5 7 8 7 6 6 6 4 2 4 6 7 7 4 2 3 2 0 1 2 1 2 7 9 4 2 3 3 4 4 4 1 0 1 1 1 2 2 1 1 2 3 3 1 2 2 4 5 4 5 8 11 12 12 11 11 11 10 9 9 9 9 10 12 13 14 16 17 17 17 18 17 17 18 18 16 14 15 15 14
24 19 11 7 6 5 4 6 8 6 4 3 3 5 5 4 3 4 6 5 2 1 1 2 1 1 2 1 2 5 8 5 3 4 4 4 4 4 2 0 1 2 1 1 2 2 2 2 3 3 1 2 2 3 3 5 8 11 12 11 10 10 10 10 9 9 10 10 10 10 12 14 15 16 15 14 15 16 16 15 15 14 12 10 10 10 9
22 17 8 2 2 3 4 5 3 1 1 1 3 5 6 4 1 3 5 4 3 1 1 1 2 2 3 1 2 5 6 5 3 4 4 3 3 3 2 2 2 1 1 1 3 3 2 1 2 3 2 2 1 2 3 8 11 12 10 9 9 9 9 10 11 11 12 12 12 12 12 13 13 13 13 11 12 13 13 11 10 9 7 7 8 9 8
20 14 7 2 1 0 1 1 1 1 1 3 6 7 5 2 0 2 4 4 3 2 1 1 1 3 4 3 3 4 5 4 3 3 3 2 2 2 2 3 2 1 1 2 3 2 1 1 2 3 2 1 1 3 5 10 12 10 8 8 8 8 9 10 12 13 13 13 13 12 11 11 12 12 11 10 10 10 11 11 10 10 9 9 9 9 8
18 12 6 2 2 3 2 1 1 1 5 7 8 5 2 0 1 1 1 1 2 2 2 2 1 3 3 3 3 3 4 4 4 4 3 3 3 2 2 2 2 2 1 3 2 1 2 1 2 4 2 1 2 4 7 9 9 7 7 7 7 7 9 10 11 13 14 14 13 12 11 12 13 11 8 8 9 10 10 10 10 10 10 9 9 9 9
15 10 5 2 3 2 1 1 2 7 9 7 3 1 0 1 2 1 1 1 1 1 1 2 1 2 1 2 3 3 4 5 4 4 3 3 2 2 1 1 2 2 2 2 0 1 3 2 3 4 3 1 2 6 8 8 7 5 5 6 7 8 9 9 10 12 13 12 12 12 12 13 13 9 7 8 8 8 9 9 9 10 10 9 10 11 12
14 8 4 3 2 2 2 4 8 9 6 1 1 2 1 2 2 1 1 1 1 1 1 1 2 2 3 4 3 2 2 4 5 5 4 3 2 2 2 2 1 2 3 2 1 1 4 3 2 3 2 1 3 7 9 8 6 5 5 6 7 9 9 9 9 11 11 9 9 9 9 9 8 7 7 7 7 8 8 9 11 12 12 12 13 14 13
12 8 5 4 4 4 6 7 7 4 1 2 2 2 1 2 1 0 0 2 2 1 0 1 2 1 2 4 4 2 1 2 4 5 4 3 1 1 3 3 1 2 4 2 1 1 4 4 3 3 2 3 5 8 8 7 6 6 6 7 8 8 9 9 10 11 10 8 8 8 8 8 8 8 7 7 7 7 7 8 10 12 13 13 14 14 14
11 9 6 6 7 7 7 5 3 2 2 2 1 1 1 1 1 0 2 3 2 0 0 1 2 1 0 1 4 3 1 1 2 3 4 2 1 1 4 3 1 2 4 1 1 2 4 4 4 4 2 4 6 7 8 8 7 6 7 7 7 8 9 9 10 11 10 7 7 8 9 10 11 10 9 9 8 7 7 8 10 12 13 13 13 14 14
13 11 8 7 8 7 5 3 2 2 2 1 1 1 1 1 1 1 2 2 1 1 0 1 3 4 2 2 4 4 1 1 1 2 3 2 1 1 4 3 1 3 3 2 2 3 4 4 5 3 2 4 6 8 9 9 7 6 7 8 7 8 9 9 9 10 10 8 7 7 9 11 11 10 10 9 9 8 9 10 11 12 12 12 13 13 14
13 9 5 4 4 3 2 2 2 1 1 1 1 1 1 1 2 1 1 1 1 1 1 1 3 4 3 1 2 2 1 1 2 2 3 2 1 2 3 3 2 3 2 2 3 4 4 5 5 3 2 4 6 8 8 8 6 5 6 7 8 8 8 7 7 8 9 9 8 8 9 10 10 9 9 9 9 9 10 10 11 11 11 11 12 13 14
9 4 2 2 2 1 1 1 1 2 2 2 2 2 2 2 2 2 2 1 1 2 3 3 4 5 4 2 2 2 2 2 2 2 2 2 2 2 3 3 2 2 2 3 4 4 4 4 4 3 3 5 6 7 7 6 5 5 5 7 8 7 6 6 8 8 8 8 8 8 8 8 8 9 9 9 9 9 9 10 11 11 11 11 12 12 13
6 2 2 2 1 1 1 1 1 2 3 2 2 3 2 2 3 3 2 2 2 4 6 5 5 6 6 3 2 2 2 1 2 2 2 3 3 3 3 3 3 3 3 4 4 4 4 3 2 2 4 5 5 5 5 4 4 5 5 5 6 6 5 6 7 7 7 7 7 7 7 7 7 8 8 9 9 9 10 10 10 10 11 11 11 12 12
3 1 2 3 2 1 1 2 2 2 2 2 2 3 3 4 5 4 3 3 4 6 6 5 5 6 6 4 2 2 2 3 3 3 2 3 4 3 2 3 3 3 4 4 4 4 5 3 1 2 4 4 3 2 3 3 2 4 4 4 5 5 5 6 7 7 6 5 5 5 5 6 6 6 7 8 8 9 9 10 11 11 11 11 11 11 11
2 1 2 2 2 1 2 3 2 1 1 1 2 2 3 4 5 4 3 4 5 5 5 5 5 5 5 4 4 3 3 3 4 4 3 3 4 3 2 3 4 4 4 5 5 4 4 3 2 3 4 3 1 3 4 3 2 2 3 3 4 3 4 5 7 6 4 3 4 4 4 3 4 5 5 6 7 7 8 10 11 11 11 11 11 11 11
3 2 2 2 2 2 2 2 1 2 2 3 3 3 3 4 5 5 4 4 4 5 5 5 4 5 4 3 3 4 3 2 3 4 3 3 3 3 2 4 5 4 4 5 5 4 4 3 3 3 4 2 1 2 4 4 2 1 1 2 2 4 4 4 5 5 4 3 3 2 2 2 3 4 4 5 6 7 8 9 10 10 11 11 11 11 12
2 2 2 3 2 2 2 2 3 5 4 4 4 4 5 5 5 5 5 4 4 5 5 4 3 4 4 2 3 5 4 3 3 3 3 4 4 4 3 5 6 5 5 5 5 5 5 4 4 4 3 2 3 3 4 4 2 0 1 1 1 3 4 5 5 5 4 3 3 3 3 3 3 4 4 4 5 6 7 8 8 9 10 10 10 11 12
3 3 3 3 4 4 4 4 5 6 5 4 4 4 5 5 5 5 4 4 4 4 4 3 3 3 3 3 3 5 4 4 3 4 5 5 5 4 5 6 7 6 5 5 5 5 4 4 5 4 3 3 4 4 4 3 1 2 3 3 2 3 4 5 6 6 6 5 5 5 4 4 4 4 4 4 4 5 5 6 7 8 8 9 10 10 11
3 3 3 4 5 5 4 4 6 6 6 5 6 5 5 5 6 5 3 3 4 4 5 4 3 3 3 4 4 3 2 2 4 5 6 6 5 5 7 8 7 6 6 6 6 5 5 5 5 5 4 3 3 4 4 3 1 3 5 5 4 4 5 5 6 6 6 6 6 5 5 4 3 3 3 2 2 2 4 5 6 6 6 7 8 9 10
3 3 4 5 6 6 6 6 6 7 6 6 6 6 5 6 6 5 4 4 5 5 5 4 3 4 4 4 3 3 3 3 4 5 6 6 6 6 8 8 7 6 6 6 6 5 5 5 4 4 4 4 4 4 5 4 2 3 6 7 6 5 6 6 6 6 6 7 6 6 5 5 4 3 3 2 1 1 3 4 4 4 5 6 7 7 8
Wind_Direction
6 5 3 2 4 8 10 9 7 1 356 356 350 336 290 260 302 91 6 348 182 208 237 193 215 238 191 82 115 107 198 205 188 185 205 225 207 205 207 213 236 228 231 244 223 225 239 232 241 247 209 132 85 80 48 289 243 247 261 137 123 209 255 253 257 254 259 260 196 176 203 251 262 251 251 266 265 264 266 269 276 273 262 261 262 261 249
7 5 4 3 4 7 10 9 7 3 358 354 341 321 314 314 301 111 11 356 196 218 244 224 227 207 158 172 154 130 84 64 219 210 195 348 229 218 197 169 233 190 189 240 227 216 230 225 228 250 219 140 90 67 15 321 255 248 338 11 157 240 249 251 263 261 251 239 222 213 205 219 245 251 254 266 269 271 270 268 271 263 257 258 256 261 255
8 6 5 4 4 7 10 9 7 4 357 353 342 297 302 297 245 175 28 24 170 220 289 275 253 187 174 191 168 160 143 71 15 340 57 31 332 266 126 105 153 166 170 218 212 207 240 237 205 216 208 148 119 92 10 321 301 59 18 344 257 253 268 261 264 264 255 249 248 249 243 240 246 254 259 262 267 270 266 259 257 250 256 261 257 266 272
9 8 6 5 4 5 9 9 8 5 356 351 339 285 301 297 239 151 77 60 85 104 39 317 267 203 191 194 169 200 187 115 58 348 62 55 14 1 75 131 208 191 191 216 212 202 219 239 227 216 205 166 138 114 66 350 33 49 15 320 248 251 266 257 257 263 267 273 283 318 334 298 272 263 262 260 265 272 269 258 255 257 263 259 249 260 270
10 10 8 7 5 4 7 10 11 8 0 353 332 280 320 310 358 11 354 78 93 110 78 32 304 186 234 222 147 208 199 145 124 2 39 52 36 2 84 198 217 209 208 221 221 208 204 214 228 226 214 172 137 128 180 157 33 337 257 240 255 253 254 252 255 261 266 274 282 293 298 285 277 275 272 270 267 262 257 255 263 272 270 259 255 263 265
11 11 10 9 8 5 6 11 14 14 15 15 349 301 11 11 26 21 331 318 54 67 33 19 34 84 130 245 92 166 191 163 134 93 89 103 342 281 201 187 219 222 222 228 215 205 207 207 214 212 207 203 180 173 181 165 155 265 219 162 283 265 261 260 259 262 264 267 270 272 271 269 270 271 271 271 267 259 253 254 260 266 264 263 273 277 267
12 12 11 11 10 8 7 11 16 21 33 41 36 24 31 27 49 45 321 329 39 36 356 337 358 65 62 66 73 67 158 123 96 57 76 167 111 313 221 176 149 142 222 249 224 202 218 206 192 196 191 203 218 213 193 173 179 215 218 96 343 276 270 271 269 270 270 268 268 266 264 262 262 263 263 263 263 260 258 257 257 259 261 263 273 280 273
13 12 12 12 11 10 8 10 17 26 38 43 44 41 28 11 23 5 312 26 52 31 359 307 258 91 40 49 86 67 68 99 100 57 6 30 91 342 247 148 92 86 164 246 188 68 2 2 105 44 229 188 221 247 248 180 186 209 267 345 164 251 279 304 284 275 271 269 269 265 262 263 263 260 259 260 260 259 258 258 256 257 262 265 269 273 272
14 14 13 13 12 12 11 10 17 28 36 38 45 43 16 354 349 320 304 4 17 355 21 333 273 114 60 41 70 68 65 76 91 77 41 25 40 14 346 46 88 185 140 90 71 51 12 357 29 345 290 289 315 287 344 335 247 242 277 272 194 245 269 281 274 270 270 270 268 265 266 270 267 262 258 256 256 257 256 256 255 254 258 263 262 262 267
15 15 14 14 13 13 13 11 15 26 33 33 36 32 7 351 312 292 290 334 18 348 7 342 292 60 42 34 56 58 64 80 102 101 70 47 38 23 357 337 271 212 138 70 32 8 338 323 332 318 292 298 302 290 298 296 284 282 282 271 259 264 271 274 269 270 274 274 274 277 278 273 269 265 260 253 251 253 255 256 258 256 254 258 260 264 285
15 15 15 15 14 13 14 13 14 22 30 27 24 25 10 354 330 301 288 258 50 358 337 22 31 57 33 32 66 64 60 75 38 346 102 85 39 17 2 336 282 212 67 29 352 328 309 303 299 287 277 268 264 270 273 264 259 263 268 267 264 263 267 271 269 270 272 274 281 282 270 263 269 348 11 309 277 270 269 270 276 275 269 275 279 281 301
13 14 15 16 15 14 14 14 14 19 25 22 20 29 16 348 313 303 311 333 50 20 24 53 41 35 42 38 55 60 52 56 40 20 52 87 49 17 13 359 337 34 25 349 324 296 249 239 232 233 244 250 249 251 252 252 248 243 250 257 259 260 261 263 263 264 269 274 271 260 258 263 74 78 55 15 339 313 296 293 333 338 308 290 291 295 309
12 13 13 14 15 14 15 14 11 14 21 23 21 24 15 353 331 320 326 336 51 30 25 80 68 36 41 39 40 60 54 51 56 43 43 59 46 40 38 20 2 2 348 328 316 283 239 233 234 236 238 238 243 245 245 247 246 235 234 245 251 255 256 257 257 257 260 260 250 249 261 301 138 127 58 24 282 305 296 268 13 24 342 302 293 308 358
11 12 12 12 13 13 13 15 11 9 16 23 20 17 16 9 360 349 332 338 64 45 354 113 86 43 30 27 13 24 69 60 83 85 58 28 15 28 29 11 355 342 325 313 293 258 248 252 250 249 246 237 240 247 241 236 234 228 230 233 236 247 253 253 254 254 255 258 257 259 271 272 250 224 51 24 308 334 313 273 263 41 11 340 328 330 346
8 10 11 11 13 12 12 13 11 6 10 18 18 14 18 14 3 344 329 327 21 73 35 26 27 12 13 21 2 330 267 118 262 128 104 61 16 29 18 357 350 334 311 290 264 245 247 256 253 252 251 244 246 250 233 211 198 201 226 226 215 235 253 258 257 255 252 259 266 266 267 271 271 95 65 36 353 352 326 283 257 73 34 354 343 343 324
6 8 9 10 11 12 11 11 10 5 7 14 16 14 15 13 3 346 325 314 320 51 48 25 355 331 339 16 9 348 348 7 338 234 150 99 39 36 20 357 346 326 300 269 251 248 244 243 244 249 251 247 246 249 246 237 210 180 201 223 218 229 247 255 257 258 255 257 263 265 263 268 72 72 35 27 17 2 340 271 238 54 24 352 326 317 306
5 6 7 7 8 10 11 11 9 5 6 11 12 9 11 11 5 347 320 317 14 65 52 15 328 287 303 4 57 20 356 358 349 301 210 59 32 24 14 0 330 299 291 260 232 235 241 237 239 248 250 244 246 253 258 257 241 210 201 215 219 224 235 244 249 252 255 256 258 264 271 298 69 61 14 24 29 0 291 252 243 11 0 342 333 322 305
4 4 5 5 6 7 10 11 9 6 6 9 10 6 7 11 10 357 322 303 29 84 69 20 351 346 16 359 0 17 352 327 341 319 288 60 29 9 6 359 2 145 280 259 237 231 238 237 243 254 251 176 213 258 266 269 254 246 241 247 249 245 246 254 257 257 257 256 257 262 269 0 46 12 346 5 1 268 256 261 312 344 329 327 331 318 305
2 2 2 4 4 5 7 8 8 6 4 8 14 14 4 10 13 8 346 326 14 81 80 32 11 25 29 349 326 38 352 310 331 323 259 91 28 351 329 311 307 10 328 255 236 238 243 236 236 264 257 207 179 263 272 279 274 270 274 276 273 269 267 262 259 260 261 258 262 266 260 60 39 356 332 331 300 265 275 301 315 313 313 317 314 302 299
360 359 360 1 1 2 4 4 7 6 2 7 16 15 1 8 12 11 2 348 15 92 93 44 13 23 28 14 15 30 9 306 349 350 10 48 10 314 250 165 55 357 7 37 207 226 252 242 208 262 266 255 60 300 270 265 270 275 277 276 273 276 279 268 257 263 269 260 257 262 258 55 29 355 341 337 305 308 329 320 301 300 306 308 302 298 299
358 357 358 358 358 359 1 2 5 5 0 7 16 14 6 8 8 12 15 346 325 74 97 57 7 13 25 28 23 12 4 7 3 355 14 35 1 324 6 73 37 9 24 25 17 69 334 284 273 264 265 258 243 265 274 275 269 254 268 282 277 265 265 273 276 283 276 257 254 277 310 349 350 334 320 314 311 312 313 306 299 297 296 300 304 301 301
356 356 357 356 355 356 357 359 3 1 358 8 19 19 14 9 5 13 33 26 5 45 71 62 23 16 16 22 19 7 0 4 355 337 336 359 19 28 50 62 49 32 12 335 324 103 97 292 290 273 269 265 255 264 278 278 270 231 194 259 271 271 285 292 292 289 281 271 280 305 311 302 302 305 300 298 296 293 292 292 292 291 290 294 297 294 294
354 354 355 353 352 352 352 355 359 357 357 11 24 21 14 9 9 13 26 50 72 82 93 120 137 132 107 33 13 2 350 342 331 324 324 325 354 60 57 46 48 51 20 350 359 16 330 310 336 311 290 287 275 272 271 265 267 279 272 263 270 284 294 294 286 281 283 278 277 286 290 289 293 296 295 296 293 289 288 288 286 287 291 290 289 291 293
352 354 354 351 349 348 347 350 354 354 358 20 33 27 18 15 15 13 2 303 103 105 119 128 115 63 38 12 347 333 331 323 309 302 300 295 298 351 61 45 18 358 58 31 355 330 310 317 331 310 293 303 299 275 276 272 271 285 289 278 277 292 315 299 282 281 285 281 277 283 286 290 295 295 292 292 288 284 286 286 285 288 290 288 287 288 289
354 354 351 347 346 345 343 344 347 351 2 35 42 30 24 23 21 16 9 355 339 311 103 95 73 34 5 354 346 336 327 314 297 281 263 256 270 294 346 35 11 346 8 16 292 269 262 259 262 265 269 312 346 290 274 269 274 292 295 282 285 335 27 305 279 276 279 281 285 290 290 290 292 292 290 291 290 290 293 292 290 289 287 285 284 284 284
354 351 345 340 340 339 337 338 343 349 8 52 58 47 42 37 30 24 15 359 328 292 327 84 90 66 17 21 16 355 338 323 297 271 257 251 258 276 290 288 287 297 299 285 267 266 272 271 270 274 277 275 288 284 285 285 285 285 282 283 293 305 302 290 286 284 282 281 286 293 295 293 291 290 291 294 297 297 296 294 293 290 287 284 282 280 280
351 346 341 337 336 334 332 330 335 348 23 75 72 64 62 47 37 33 21 359 334 261 83 84 102 96 72 49 25 7 1 1 350 286 248 245 243 248 257 258 262 271 269 262 258 263 270 272 270 277 286 284 264 279 285 288 288 281 275 281 296 294 287 292 294 287 283 289 299 306 303 295 292 294 297 299 300 299 297 295 293 290 288 288 285 282 279
349 344 341 338 336 333 328 321 324 340 54 113 85 65 68 54 37 32 23 8 353 336 19 60 97 122 109 55 24 15 21 26 28 45 71 146 217 231 243 247 255 263 257 256 264 263 265 273 279 282 293 306 286 281 276 271 274 276 276 293 313 306 302 303 296 288 289 296 303 307 301 291 293 299 300 301 301 299 296 295 294 293 294 295 294 290 287
349 346 344 342 339 332 320 310 310 315 222 155 139 357 78 71 37 22 17 10 358 335 298 163 120 127 113 15 13 17 26 28 31 41 47 58 94 237 252 247 256 270 261 260 276 281 276 283 297 311 338 352 301 290 283 276 273 274 295 325 327 315 308 303 295 293 294 295 300 305 298 292 296 300 299 299 300 298 297 296 296 297 298 299 298 295 292
350 350 349 347 344 337 322 297 38 310 199 184 240 288 251 116 44 17 8 2 353 333 292 250 100 94 94 9 5 17 24 23 25 31 20 11 21 9 307 268 256 258 254 252 269 287 291 287 289 301 96 122 282 281 282 284 280 286 320 339 330 317 311 305 300 297 295 294 299 300 294 292 296 297 297 299 301 301 300 298 295 297 298 297 294 291 290
353 353 353 352 353 357 27 111 102 84 156 212 283 327 353 43 7 357 352 352 347 324 291 283 103 120 138 119 14 8 5 360 359 11 16 356 354 357 318 287 268 246 264 271 265 279 295 293 285 271 160 167 250 273 285 284 281 296 333 337 328 321 315 308 304 301 298 298 300 298 294 295 300 301 301 305 306 303 300 297 296 296 295 293 290 287 289
356 355 355 359 9 33 83 102 103 99 98 91 51 46 46 351 341 345 347 354 353 320 299 315 123 129 51 118 62 7 350 331 318 338 10 15 350 333 287 289 293 260 286 290 273 265 284 287 288 290 239 161 216 264 281 282 285 312 330 327 323 322 318 313 311 310 306 305 308 308 305 306 308 307 306 308 307 305 302 300 298 295 292 292 291 289 287
356 355 354 2 23 59 97 110 116 115 106 96 80 63 39 341 349 359 356 356 352 325 326 330 256 58 1 148 94 14 351 330 318 343 17 35 355 320 279 193 249 192 230 282 278 279 256 240 264 284 227 163 246 280 287 291 307 323 325 322 323 325 322 319 317 317 315 313 311 308 304 304 305 305 304 304 305 305 304 302 300 298 297 296 294 292 293
354 352 350 7 38 69 115 131 130 121 98 74 59 30 356 334 356 8 358 347 316 257 348 330 290 44 28 201 129 31 1 347 1 359 5 26 359 324 316 342 226 195 179 292 284 269 244 241 268 275 215 182 255 278 287 310 323 325 321 321 327 330 327 325 325 326 326 321 315 307 302 301 304 304 303 304 308 311 311 308 304 304 304 304 307 316 324
352 350 341 346 52 84 127 142 153 218 300 358 9 349 326 308 329 5 1 352 309 254 86 354 313 2 14 346 53 33 358 338 0 3 348 0 5 344 332 310 255 196 100 311 275 256 243 284 301 278 218 178 228 267 307 322 325 324 322 328 338 338 333 330 329 328 326 322 318 312 306 305 309 312 314 321 328 329 331 333 329 329 335 347 357 2 358
353 351 338 298 301 65 175 179 290 293 294 331 336 331 320 289 258 357 0 3 351 344 1 310 320 6 8 355 16 12 340 332 7 10 342 340 358 356 328 302 292 66 43 264 252 250 281 343 303 270 232 211 302 327 338 330 325 325 328 333 338 334 330 329 326 322 321 319 317 316 315 317 321 324 331 341 348 353 2 12 15 15 18 19 16 9 2
354 356 351 311 272 268 251 169 101 338 319 320 322 331 351 2 249 292 312 339 9 6 330 286 355 29 6 341 356 352 334 344 5 1 351 352 348 341 323 305 327 12 285 246 241 297 324 299 274 275 280 310 333 345 348 338 330 330 329 328 329 327 326 327 323 321 323 325 325 330 337 334 330 334 349 3 8 13 19 23 25 25 24 22 17 11 7
359 9 12 326 280 271 218 133 288 305 313 317 307 275 209 246 238 214 197 249 311 23 260 278 348 35 336 318 0 8 345 345 350 349 1 5 341 328 332 324 343 341 289 259 114 352 294 259 250 274 283 306 359 350 349 345 337 327 318 318 323 320 316 317 322 328 333 335 334 338 340 335 332 345 13 22 19 22 27 29 31 32 31 28 23 18 15
4 14 8 334 331 355 348 315 304 306 314 306 220 238 215 205 223 211 166 219 243 179 193 269 344 17 333 327 357 41 7 330 333 345 358 3 353 350 342 333 1 323 287 269 102 351 289 275 261 268 273 24 8 352 352 351 343 331 320 317 318 317 311 314 329 337 337 333 336 344 348 346 353 13 31 34 32 32 33 35 36 36 34 31 25 21 17
4 6 356 344 353 350 330 318 316 316 263 193 228 250 222 213 237 285 219 236 234 179 142 315 342 25 343 320 330 10 33 329 331 340 341 337 7 358 320 319 3 319 286 271 98 335 294 287 277 270 286 10 0 353 354 349 340 335 329 321 324 328 323 321 332 341 341 343 1 18 24 27 36 43 43 40 40 34 29 34 38 37 33 28 24 21 15
353 348 334 325 326 323 316 311 303 269 238 243 241 226 231 237 165 161 265 267 258 161 119 315 316 327 130 280 303 318 4 5 321 315 311 315 13 315 301 314 1 287 277 288 41 307 283 277 277 277 321 6 356 352 352 348 345 341 331 327 335 339 332 329 340 353 1 13 34 42 42 46 53 54 49 48 46 36 28 36 41 38 32 27 23 20 15
329 318 304 297 300 301 291 267 238 225 237 266 253 222 237 251 201 222 256 273 323 348 288 273 308 317 328 310 299 303 331 15 297 283 291 316 6 297 299 312 294 260 277 329 338 287 272 270 274 279 356 5 356 357 355 352 351 337 321 326 342 345 339 342 358 15 30 45 54 55 58 62 63 59 56 57 52 41 36 39 40 38 35 30 26 21 14
326 317 300 282 277 273 254 223 208 212 228 242 233 220 218 213 214 243 261 230 240 288 291 299 303 305 305 290 283 279 241 229 267 281 294 306 306 283 290 285 253 256 295 324 291 275 271 272 277 295 346 349 354 3 0 356 355 333 318 336 355 352 347 3 28 41 50 56 58 61 68 72 70 64 61 59 53 45 40 36 35 35 34 30 28 23 15
315 294 271 256 236 235 240 202 177 212 233 222 210 222 227 217 226 263 287 296 281 292 306 311 302 298 302 309 298 282 253 224 236 266 286 291 282 269 271 267 265 286 306 290 273 274 278 276 282 304 327 337 358 8 0 355 357 336 325 350 6 2 2 29 50 56 56 54 56 61 65 66 63 55 47 42 41 42 39 34 31 33 34 33 33 29 20
309 284 289 280 230 220 242 211 185 221 231 214 208 228 247 276 288 289 306 340 318 301 302 304 297 294 297 300 281 262 259 250 247 258 274 285 280 269 265 277 299 303 292 278 271 272 275 271 266 301 328 349 10 8 351 353 352 324 316 354 20 21 27 49 59 59 54 52 58 60 58 53 50 43 35 33 34 34 33 31 31 34 35 35 37 36 30
324 330 319 297 274 255 247 221 208 221 221 206 218 244 275 298 302 306 320 317 299 296 301 303 297 291 290 288 266 249 257 268 272 271 272 280 279 271 268 285 284 270 264 268 268 269 280 293 322 347 344 357 6 328 316 348 354 314 320 8 39 41 47 66 71 64 53 54 65 66 59 53 44 38 38 40 34 28 27 30 33 36 36 34 33 35 36
310 332 312 283 257 229 227 226 234 257 256 246 256 274 297 304 299 298 297 292 291 298 301 295 286 281 279 276 272 263 249 251 267 270 265 269 273 270 262 266 261 249 253 265 268 272 287 309 345 353 348 353 326 289 315 348 1 298 325 17 56 74 76 83 86 79 68 71 75 68 59 55 49 48 52 49 38 30 32 36 37 38 38 34 31 32 34
313 310 279 265 257 236 225 238 282 281 260 257 268 281 289 289 285 283 284 285 288 289 285 281 284 285 273 255 264 271 265 251 258 260 256 257 266 264 249 247 248 244 248 259 269 284 296 311 345 353 343 330 264 265 304 327 327 268 306 359 65 99 103 102 101 98 98 112 114 100 85 83 78 74 69 59 45 39 38 39 39 38 36 34 33 31 30
285 271 255 261 274 269 257 271 289 282 269 260 264 269 270 273 277 285 291 289 281 274 269 270 285 289 278 253 260 267 257 236 240 249 239 233 242 248 246 249 255 257 255 255 265 281 292 305 323 327 311 274 245 251 282 309 322 217 218 265 107 115 120 122 121 119 125 143 152 150 146 133 114 99 84 66 53 46 40 38 41 41 36 34 34 33 31
238 242 245 244 251 261 266 269 276 280 278 270 264 266 271 274 278 285 288 280 274 271 264 252 249 258 257 251 262 264 250 230 234 245 241 238 242 243 243 249 258 265 267 267 272 281 289 300 308 306 282 238 229 250 278 301 303 176 199 218 195 143 135 134 132 132 139 150 153 149 140 129 114 102 90 74 64 59 48 38 38 40 38 35 34 34 33
221 230 243 242 247 263 280 282 280 284 288 285 284 285 283 279 279 284 286 279 271 267 262 252 242 243 243 237 242 257 253 230 234 243 245 247 248 243 242 250 261 271 276 278 281 284 290 301 308 306 294 263 240 257 283 297 252 182 200 216 206 169 151 149 148 146 147 150 148 139 131 127 120 111 107 105 93 77 64 50 41 38 38 37 35 35 35
219 235 255 254 253 262 270 273 276 280 280 280 284 284 278 277 280 280 272 262 256 256 259 256 247 248 250 241 234 248 255 243 239 243 246 248 250 248 250 258 270 278 280 283 283 282 290 301 302 288 280 274 265 268 281 288 257 192 198 210 213 194 170 162 162 163 162 157 152 147 147 151 154 157 165 180 183 62 55 54 47 39 39 41 39 38 39